ZTF彗星

C/2022 E3 ( ZTF )

English version
Home page
Updated on November 26, 2022

---------------------------------------------------------------------

・ プロフィール

発見日 2022年3月2日
発見光度 17.2等
発見者 Zwicky Transient Facility (ZTF)

・ 写真集

・ 軌道要素

Epoch 2022 Aug. 9.0 TT = JDT 2459800.5
T 2023 Jan. 12.78722 TT                                 Rudenko
q   1.1122566            (2000.0)            P               Q
z  -0.0002454      Peri.  145.81470     -0.60062713     -0.07339545
 +/-0.0000010      Node   302.55388     +0.33753125     +0.87941592
e   1.0002729      Incl.  109.16858     +0.72478943     -0.47036235
>From 4443 observations 2021 July 10-2022 Nov. 4, mean residual 0".5.

・ 星図

・ 光度変化

        m1 = -2.0 + 5 logΔ + 25   log r  [    ,-288]  (              〜2022年 3月30日)
        m1 =  7.0 + 5 logΔ + 10.0 log r  [-288,    ]  (2022年 3月30日〜              )

---------------------------------------------------------------------

軌道要素はM.P.E.C. 2022-V95に掲載されたものです。
星図はステラナビゲータ Ver.10 (アストロアーツ) で作成したものです。
光度グラフはComet for Windowsで作成したものです。

---------------------------------------------------------------------

Copyright(C) Seiichi Yoshida (comet@aerith.net). All rights reserved.